Home   Weather   Owensboro   Past weeks

Flag for USA Past Weather in Owensboro, Kentucky, USA — Yesterday and Last 2 Weeks

Now
44 °F

Sunny.


Feels Like: 40 °F
Forecast: 30 / 48 °F
Wind: 7 mph from Northwest

Location: Owensboro / Daviess

Current Time: Dec 2, 2016 at 12:11:16 pm

Latest Report: Dec 2, 2016 at 10:56 am


Visibility: 10 mi

Pressure: 30.32 "Hg

Humidity: 63%

Dew Point: 32 °F

Location of OwensboroLocation

Past Weather in Owensboro — Graph

°F

Owensboro Temperature Yesterday

Maximum temperature yesterday: 47 °F (at 12:56 pm)
Minimum temperature yesterday: 30 °F (at 11:56 pm)
Average temperature yesterday: 40 °F

High & Low Weather Summary for the Past Weeks

 TemperatureHumidityPressure
High79 °F (Nov 17, 12:56 pm)100% (Nov 24, 12:56 am)30.51 "Hg (Nov 24, 12:56 am)
Low23 °F (Nov 21, 6:56 am)38% (Nov 17, 12:56 pm)29.41 "Hg (Nov 28, 4:56 pm)
Average46 °F70%30.14 "Hg
* Reported Nov 17 10:56 am — Dec 2 10:56 am, Owensboro, Weather by CustomWeather, © 2016

Note: Actual official high and low records may vary slightly from our data, if they occured in-between our weather recording intervals... More about our weather records

Advertising

Owensboro Weather History for the Previous 24 Hours

Scroll right to see more
 ConditionsComfort  
Time TempWeatherWind HumidityBarometerVisibility
10:56 am
Fri, Dec 2
44 °FSunny.7 mph63%30.32 "Hg10 mi
9:56 am41 °FSunny.7 mph74%30.33 "Hg10 mi
8:56 am39 °FSunny.3 mph86%30.30 "Hg10 mi
7:56 am31 °FSunny.No wind96%30.28 "Hg10 mi
6:56 am27 °FSunny.No wind92%30.25 "Hg10 mi
5:56 am26 °FSunny.No wind96%30.24 "Hg10 mi
5:04 am27 °FPassing clouds.3 mph100%30.20 "Hg10 mi
4:56 am27 °FPassing clouds.No wind96%30.24 "Hg10 mi
3:56 am28 °FClear.No wind96%30.22 "Hg10 mi
2:56 am28 °FClear.No wind96%30.22 "Hg10 mi
1:56 am29 °FClear.No wind93%30.21 "Hg10 mi
12:56 am29 °FClear.No wind93%30.19 "Hg10 mi
11:56 pm
Thu, Dec 1
30 °FClear.No wind92%30.18 "Hg10 mi
10:56 pm34 °FClear.No wind82%30.17 "Hg10 mi
9:56 pm34 °FClear.No wind82%30.15 "Hg10 mi
8:56 pm35 °FClear.No wind82%30.15 "Hg10 mi
7:56 pm37 °FClear.3 mph73%30.13 "Hg10 mi
6:56 pm37 °FClear.3 mph79%30.12 "Hg10 mi
5:56 pm40 °FClear.3 mph68%30.10 "Hg10 mi
4:56 pm41 °FClear.6 mph65%30.09 "Hg10 mi
3:56 pm46 °FClear.7 mph51%30.08 "Hg10 mi
2:56 pm47 °FSunny.10 mph50%30.07 "Hg10 mi
1:56 pm47 °FSunny.14 mph48%30.06 "Hg10 mi
12:56 pm47 °FSunny.14 mph50%30.07 "Hg10 mi
Weather by CustomWeather, © 2016

See weather overviewHow to use our weather pages